Regional Weather Roundup
Issued by NWS

Home | Current Version | Previous Version | Text Only | Print | Product List | Glossary Off
Versions: 1 2 3 4 5 6 7 8 9 10 11 12 13 14 15 16 17 18 19 20 21 22 23 24 25 26 27 28 29 30 31 32 33 34 35 36 37 38 39 40 41 42 43 44 45 46 47 48 49 50

000
ASUS43 KLMK 290610
RWRKY
KENTUCKY REGIONAL WEATHER ROUNDUP
NATIONAL WEATHER SERVICE LOUISVILLE KY
200 AM EDT THU JUN 29 2017

NOTE "FAIR" INDICATES FEW OR NO CLOUDS BELOW 12,000 FEET
WITH NO SIGNIFICANT WEATHER AND/OR OBSTRUCTIONS TO VISIBILITY.

KYZ001>023-026-027-061>063-070>075-290700-
WESTERN AND SOUTH CENTRAL KENTUCKY

CITY           SKY/WX    TMP DP  RH WIND       PRES   REMARKS
PADUCAH        CLOUDY    73  64  73 S5        29.98R
HENDERSON      CLOUDY    72  64  76 S6        30.00R
OWENSBORO      CLOUDY    69  63  81 S5        30.01R
HOPKINSVILLE   CLEAR     74  63  67 SE7       30.02S
BOWLING GREEN  PTCLDY    71  60  68 S5        30.05S
GLASGOW        CLEAR     66  58  77 CALM      30.06S
$$

KYZ024-025-028>034-038-045-046-053-290700-
NORTH CENTRAL KENTUCKY

CITY           SKY/WX    TMP DP  RH WIND       PRES   REMARKS
LOUISVILLE/SDF MOCLDY    72  57  59 SE7       30.02S
LOUISVILLE/LOU CLOUDY    71  57  61 SE3       30.04S
FORT KNOX      PTCLDY    67  57  68 S5        30.02S
$$

KYZ035>037-039>044-047>052-055>060-089>105-290700-
NORTHEAST KENTUCKY

CITY           SKY/WX    TMP DP  RH WIND       PRES   REMARKS
LEXINGTON      CLOUDY    68  55  63 S6        30.07S
COVINGTON      CLOUDY    65  57  75 S7        30.03F
FRANKFORT      CLOUDY    66  55  67 SE3       30.04S
$$

KYZ054-064>069-076>088-106>120-290700-
SOUTHEAST KENTUCKY

CITY           SKY/WX    TMP DP  RH WIND       PRES   REMARKS
JACKSON        CLEAR     66  57  72 CALM      30.12R
LONDON         PTCLDY    64  56  75 CALM      30.12R
SOMERSET       CLOUDY    64  55  72 S3        30.11S
MIDDLESBORO    CLOUDY    60  58  96 CALM      30.15S
MONTICELLO     PTCLDY    62  59  90 NE9       30.11F
$$




USA.gov is the U.S. government's official web portal to all federal, state and local government web resources and services.